When you browse on this site, cookies collect data to enhance your experience and personalize the content and advertising you see.
Visit our Privacy Policy to learn more. By continuing to use the site, you agree to this use of cookies and data.
  • En España
  • Lista de países
  • Para 7 días
  • Temperatura del agua
  • Mapa Satelital
  • El tiempo en el mapa
  • Informadores
  • user-avatar
    Iniciar sesión

    Tiempo cada hora Valutino

    Hoy, 17 Julio, Miércoles

    Tiempo Temperatura Precipitaciones Viento Presión Humedad
    00:00 +10°C° 0 mm 0 mps 738 mmHg 92%
    01:00 +10°C° 0 mm 0 mps 738 mmHg 92%
    02:00 +10°C° 0 mm 0 mps 738 mmHg 92%
    03:00 +12°C° 0 mm 1 mps 738 mmHg 91%
    04:00 +12°C° 0 mm 1 mps 738 mmHg 91%
    05:00 +12°C° 0 mm 2 mps 738 mmHg 91%
    06:00 +14°C° 0 mm 2 mps 738 mmHg 87%
    07:00 +15°C° 0 mm 1 mps 737 mmHg 83%
    08:00 +16°C° 0 mm 1 mps 737 mmHg 78%
    09:00 +18°C° 0.3 mm 1 mps 737 mmHg 76%
    10:00 +19°C° 0.3 mm 1 mps 737 mmHg 75%
    11:00 +19°C° 0.3 mm 2 mps 737 mmHg 73%
    12:00 +20°C° 0.1 mm 1 mps 737 mmHg 70%
    13:00 +21°C° 0.1 mm 1 mps 737 mmHg 67%
    14:00 +21°C° 0.1 mm 1 mps 736 mmHg 64%
    15:00 +21°C° 0.1 mm 1 mps 736 mmHg 66%
    16:00 +21°C° 0.1 mm 1 mps 737 mmHg 69%
    17:00 +20°C° 0.1 mm 1 mps 737 mmHg 71%
    18:00 +19°C° 0.3 mm 1 mps 736 mmHg 76%
    19:00 +18°C° 0.3 mm 1 mps 736 mmHg 80%
    20:00 +15°C° 0.3 mm 1 mps 736 mmHg 84%
    21:00 +15°C° 0.1 mm 1 mps 736 mmHg 85%
    22:00 +15°C° 0.1 mm 1 mps 736 mmHg 85%
    23:00 +14°C° 0.1 mm 0 mps 736 mmHg 85%

    Mañana, 18 Julio, Jueves

    Tiempo Temperatura Precipitaciones Viento Presión Humedad
    00:00 +15°C° 0.2 mm 1 mps 736 mmHg 87%
    01:00 +14°C° 0.2 mm 1 mps 736 mmHg 89%
    02:00 +14°C° 0.2 mm 1 mps 736 mmHg 91%
    03:00 +14°C° 0.2 mm 1 mps 735 mmHg 92%
    04:00 +14°C° 0.2 mm 1 mps 735 mmHg 93%
    05:00 +13°C° 0.2 mm 0 mps 735 mmHg 94%
    06:00 +15°C° 0.3 mm 1 mps 735 mmHg 92%
    07:00 +15°C° 0.3 mm 1 mps 735 mmHg 91%
    08:00 +16°C° 0.3 mm 1 mps 735 mmHg 90%
    09:00 +16°C° 0.6 mm 2 mps 735 mmHg 90%
    10:00 +16°C° 0.6 mm 3 mps 735 mmHg 91%
    11:00 +15°C° 0.6 mm 4 mps 735 mmHg 92%
    12:00 +15°C° 0.3 mm 4 mps 735 mmHg 91%
    13:00 +15°C° 0.3 mm 4 mps 735 mmHg 90%
    14:00 +15°C° 0.3 mm 4 mps 735 mmHg 90%
    15:00 +15°C° 0.2 mm 4 mps 735 mmHg 90%
    16:00 +16°C° 0.2 mm 3 mps 736 mmHg 91%
    17:00 +16°C° 0.2 mm 3 mps 736 mmHg 91%
    18:00 +16°C° 0.5 mm 3 mps 736 mmHg 93%
    19:00 +14°C° 0.5 mm 3 mps 736 mmHg 95%
    20:00 +15°C° 0.5 mm 2 mps 736 mmHg 97%
    21:00 +14°C° 0.2 mm 2 mps 736 mmHg 97%
    22:00 +13°C° 0.2 mm 3 mps 736 mmHg 97%
    23:00 +13°C° 0.2 mm 3 mps 736 mmHg 97%

    Pasado mañana, 19 Julio, Viernes

    Tiempo Temperatura Precipitaciones Viento Presión Humedad
    00:00 +13°C° 0.8 mm 3 mps 736 mmHg 97%
    01:00 +13°C° 0.8 mm 4 mps 736 mmHg 97%
    02:00 +14°C° 0.8 mm 4 mps 736 mmHg 98%
    03:00 +14°C° 0.3 mm 4 mps 736 mmHg 97%
    04:00 +14°C° 0.3 mm 5 mps 737 mmHg 97%
    05:00 +14°C° 0.3 mm 5 mps 737 mmHg 97%
    06:00 +14°C° 0.1 mm 5 mps 737 mmHg 96%
    07:00 +14°C° 0.1 mm 5 mps 737 mmHg 95%
    08:00 +14°C° 0.1 mm 6 mps 738 mmHg 95%
    09:00 +14°C° 0.1 mm 6 mps 738 mmHg 93%
    10:00 +15°C° 0.1 mm 6 mps 738 mmHg 92%
    11:00 +15°C° 0.1 mm 6 mps 739 mmHg 91%
    12:00 +16°C° 0.5 mm 6 mps 739 mmHg 89%
    13:00 +16°C° 0.5 mm 6 mps 739 mmHg 87%
    14:00 +17°C° 0.5 mm 6 mps 740 mmHg 85%
    15:00 +17°C° 0.3 mm 6 mps 740 mmHg 85%
    16:00 +16°C° 0.3 mm 6 mps 740 mmHg 86%
    17:00 +16°C° 0.3 mm 5 mps 740 mmHg 86%
    18:00 +15°C° 0 mm 5 mps 741 mmHg 88%
    19:00 +15°C° 0 mm 4 mps 741 mmHg 89%
    20:00 +14°C° 0 mm 3 mps 741 mmHg 90%
    21:00 +14°C° 0 mm 3 mps 741 mmHg 90%
    22:00 +14°C° 0 mm 3 mps 742 mmHg 91%
    23:00 +14°C° 0 mm 4 mps 742 mmHg 91%

    20 Julio, Sábado

    Tiempo Temperatura Precipitaciones Viento Presión Humedad
    00:00 +13°C° 0 mm 4 mps 742 mmHg 92%
    01:00 +13°C° 0 mm 4 mps 742 mmHg 93%
    02:00 +12°C° 0 mm 4 mps 742 mmHg 94%
    03:00 +12°C° 0 mm 4 mps 742 mmHg 94%
    04:00 +12°C° 0 mm 3 mps 743 mmHg 95%
    05:00 +12°C° 0 mm 3 mps 743 mmHg 95%
    06:00 +14°C° 0 mm 4 mps 743 mmHg 89%
    07:00 +15°C° 0 mm 4 mps 743 mmHg 84%
    08:00 +18°C° 0 mm 4 mps 744 mmHg 79%
    09:00 +19°C° 0.2 mm 5 mps 744 mmHg 77%
    10:00 +19°C° 0.2 mm 5 mps 744 mmHg 76%
    11:00 +20°C° 0.2 mm 5 mps 745 mmHg 75%
    12:00 +20°C° 0.7 mm 5 mps 745 mmHg 77%
    13:00 +20°C° 0.7 mm 5 mps 745 mmHg 78%
    14:00 +20°C° 0.7 mm 5 mps 745 mmHg 80%
    15:00 +20°C° 0.5 mm 5 mps 745 mmHg 80%
    16:00 +20°C° 0.5 mm 4 mps 745 mmHg 81%
    17:00 +20°C° 0.5 mm 4 mps 745 mmHg 81%
    18:00 +19°C° 0.1 mm 3 mps 745 mmHg 85%
    19:00 +18°C° 0.1 mm 3 mps 746 mmHg 89%
    20:00 +17°C° 0.1 mm 2 mps 746 mmHg 93%
    21:00 +16°C° 0 mm 2 mps 746 mmHg 93%
    22:00 +15°C° 0 mm 2 mps 746 mmHg 94%
    23:00 +14°C° 0 mm 2 mps 746 mmHg 95%

    21 Julio, Domingo

    Tiempo Temperatura Precipitaciones Viento Presión Humedad
    00:00 +14°C° 0 mm 2 mps 746 mmHg 95%
    01:00 +14°C° 0 mm 2 mps 746 mmHg 95%
    02:00 +13°C° 0 mm 2 mps 747 mmHg 96%
    03:00 +13°C° 0 mm 2 mps 747 mmHg 96%
    04:00 +13°C° 0 mm 2 mps 747 mmHg 97%
    05:00 +13°C° 0 mm 2 mps 747 mmHg 97%
    06:00 +15°C° 0 mm 2 mps 747 mmHg 93%
    07:00 +16°C° 0 mm 2 mps 747 mmHg 88%
    08:00 +18°C° 0 mm 2 mps 747 mmHg 84%
    09:00 +19°C° 0 mm 2 mps 747 mmHg 78%
    10:00 +20°C° 0 mm 2 mps 747 mmHg 71%
    11:00 +21°C° 0 mm 2 mps 747 mmHg 65%
    12:00 +22°C° 0 mm 3 mps 747 mmHg 65%
    13:00 +22°C° 0 mm 3 mps 747 mmHg 65%
    14:00 +23°C° 0 mm 4 mps 747 mmHg 65%
    15:00 +22°C° 0.1 mm 4 mps 747 mmHg 67%
    16:00 +22°C° 0.1 mm 3 mps 747 mmHg 70%
    17:00 +22°C° 0.1 mm 3 mps 747 mmHg 73%
    18:00 +20°C° 0 mm 3 mps 747 mmHg 78%
    19:00 +18°C° 0 mm 2 mps 747 mmHg 83%
    20:00 +18°C° 0 mm 1 mps 747 mmHg 89%
    21:00 +16°C° 0 mm 1 mps 747 mmHg 90%
    22:00 +15°C° 0 mm 1 mps 747 mmHg 90%
    23:00 +15°C° 0 mm 1 mps 747 mmHg 91%

    22 Julio, Lunes

    Tiempo Temperatura Precipitaciones Viento Presión Humedad
    00:00 +14°C° 0 mm 1 mps 747 mmHg 92%
    01:00 +14°C° 0 mm 1 mps 747 mmHg 92%
    02:00 +14°C° 0 mm 1 mps 747 mmHg 92%
    03:00 +14°C° 0 mm 1 mps 747 mmHg 93%
    04:00 +14°C° 0 mm 1 mps 747 mmHg 93%
    05:00 +14°C° 0 mm 1 mps 747 mmHg 94%
    06:00 +15°C° 0 mm 1 mps 747 mmHg 88%
    07:00 +18°C° 0 mm 1 mps 747 mmHg 83%
    08:00 +20°C° 0 mm 1 mps 747 mmHg 77%
    09:00 +21°C° 0 mm 1 mps 747 mmHg 71%
    10:00 +23°C° 0 mm 1 mps 747 mmHg 65%
    11:00 +24°C° 0 mm 1 mps 747 mmHg 58%
    12:00 +24°C° 0 mm 1 mps 747 mmHg 55%
    13:00 +25°C° 0 mm 1 mps 747 mmHg 51%
    14:00 +25°C° 0 mm 2 mps 747 mmHg 48%
    15:00 +25°C° 0 mm 2 mps 747 mmHg 52%
    16:00 +25°C° 0 mm 2 mps 746 mmHg 55%
    17:00 +25°C° 0 mm 2 mps 746 mmHg 59%
    18:00 +23°C° 0 mm 2 mps 746 mmHg 64%
    19:00 +20°C° 0 mm 2 mps 746 mmHg 69%
    20:00 +17°C° 0 mm 2 mps 746 mmHg 75%
    21:00 +17°C° 0 mm 2 mps 746 mmHg 76%
    22:00 +16°C° 0 mm 2 mps 746 mmHg 77%
    23:00 +15°C° 0 mm 2 mps 746 mmHg 79%
    Mostrar más